Russell, KS

3:03 PM CST on December 13, 2017 (GMT -0600)
Russell Municipal

Weather History for KRSL - January, 2012

Change the Weather History Date:

Thursday, January 26, 2012

  Actual Average Record
Temperature  
Mean Temperature 38 °F -  
Max Temperature 54 °F 39 °F 72 °F (2002)
Min Temperature 23 °F 18 °F -11 °F (1963)
Degree Days  
Heating Degree Days 26    
Moisture  
Dew Point 18 °F    
Average Humidity 50    
Maximum Humidity 82    
Minimum Humidity 17    
Precipitation  
Precipitation 0.00 in - - ()
Sea Level Pressure  
Sea Level Pressure 29.99 in    
Wind  
Wind Speed 14 mph (NW)    
Max Wind Speed 22 mph    
Max Gust Speed 30 mph    
Visibility 10 miles    
Events      
Averages and records for this station are not official NWS values.
T = Trace of Precipitation, MM = Missing Value Source: NWS Daily Summary

Daily Weather History Graph

Daily Weather History Graph

Search for Another Location

Airport or City:

Trip Planner

Search our weather history database for the weather conditions in past years. The results will help you decide how hot, cold, wet, or windy it might be!

Date:

Astronomy

Jan. 26, 2012 Rise Set
Actual Time 7:46 AM CST 5:49 PM CST
Civil Twilight 7:18 AM CST 6:17 PM CST
Nautical Twilight 6:45 AM CST 6:50 PM CST
Astronomical Twilight 6:14 AM CST 7:21 PM CST
Moon 9:17 AM CST (1/26) 9:40 PM CST (1/26)
Length of Visible Light 10h 59m
Length of Day
10h 02m
Waxing Crescent, 12% of the Moon is Illuminated
Jan 26
Waxing Crescent
Jan 30
First Quarter
Feb 7
Full
Feb 14
Last Quarter
Feb 21
New

Hourly Weather History & Observations

Time (CST) Temp. Windchill Dew Point Humidity Pressure Visibility Wind Dir Wind Speed Gust Speed Precip Events Conditions
12:53 AM 25.0 °F - 18.0 °F 75% 29.96 in 10.0 mi North - - N/A   Clear
1:53 AM 23.0 °F - 17.1 °F 78% 29.95 in 10.0 mi North - - N/A   Clear
2:53 AM 23.0 °F - 17.1 °F 78% 29.96 in 10.0 mi North - - N/A   Clear
3:53 AM 24.1 °F - 19.0 °F 81% 29.96 in 10.0 mi North - - N/A   Clear
4:53 AM 30.9 °F - 23.0 °F 72% 29.99 in 10.0 mi North - - N/A   Clear
5:53 AM 37.0 °F - 27.0 °F 67% 30.01 in 10.0 mi North - - N/A   Clear
6:53 AM 36.0 °F - 28.9 °F 76% 30.04 in 10.0 mi North - - N/A   Clear
7:53 AM 33.1 °F 23.4 °F 28.0 °F 82% 30.07 in 10.0 mi NNW 13.8 mph - N/A   Clear
8:53 AM 39.0 °F 30.6 °F 30.0 °F 70% 30.08 in 10.0 mi NNW 15.0 mph - N/A   Clear
9:53 AM 45.0 °F 37.4 °F 30.0 °F 56% 30.07 in 10.0 mi NNW 18.4 mph - N/A   Clear
10:53 AM 48.9 °F - 26.1 °F 41% 30.08 in 10.0 mi NNW 18.4 mph 24.2 mph N/A   Clear
11:53 AM 52.0 °F - 19.9 °F 28% 30.06 in 10.0 mi North 19.6 mph - N/A   Clear
12:53 PM 54.0 °F - 17.1 °F 23% 30.02 in 10.0 mi NW 20.7 mph 29.9 mph N/A   Clear
1:53 PM 54.0 °F - 16.0 °F 22% 30.00 in 10.0 mi NNW 21.9 mph 27.6 mph N/A   Clear
2:53 PM 54.0 °F - 12.0 °F 19% 29.98 in 10.0 mi NNW 21.9 mph 29.9 mph N/A   Clear
3:53 PM 54.0 °F - 9.0 °F 17% 29.98 in 10.0 mi NNW 20.7 mph 24.2 mph N/A   Clear
4:53 PM 51.1 °F - 10.9 °F 20% 29.97 in 10.0 mi North 12.7 mph - N/A   Clear
5:53 PM 44.1 °F 41.5 °F 10.9 °F 26% 29.98 in 10.0 mi NNW 4.6 mph - N/A   Clear
6:53 PM 44.1 °F - 10.0 °F 25% 29.98 in 10.0 mi Calm Calm - N/A   Clear
7:53 PM 36.0 °F - 10.0 °F 34% 29.97 in 10.0 mi Calm Calm - N/A   Clear
8:53 PM 30.0 °F 22.4 °F 12.9 °F 49% 29.96 in 10.0 mi SSW 8.1 mph - N/A   Clear
9:53 PM 28.0 °F 20.0 °F 12.9 °F 53% 29.94 in 10.0 mi South 8.1 mph - N/A   Clear
10:53 PM 25.0 °F 16.3 °F 14.0 °F 63% 29.93 in 10.0 mi South 8.1 mph - N/A   Clear
11:53 PM 32.0 °F 24.2 °F 17.1 °F 54% 29.89 in 10.0 mi SSE 9.2 mph - N/A   Clear